| time (UTC) | temp F | wind direction | speed MPH | gust MPH | rain 1hr in | rain 24hr in | rain mn in | humidity % | barometer mb |
| 20260505010103 | 77 | 170 | 1.0 | 5.0 | 0.00 | 0.00 | 0.00 | 75 | 1010.4 |
| 20260505004543 | 77 | 142 | 1.0 | 6.0 | 0.00 | 0.00 | 0.00 | 75 | 1010.4 |
| 20260505003045 | 78 | 159 | 3.0 | 6.0 | 0.00 | 0.00 | 0.00 | 74 | 1010.4 |
| 20260505001540 | 78 | 169 | 4.0 | 8.0 | 0.00 | 0.00 | 0.00 | 73 | 1010.5 |
| 20260505000045 | 78 | 167 | 5.0 | 8.0 | 0.00 | 0.00 | 0.00 | 72 | 1010.6 |
| 20260504234539 | 79 | 121 | 4.0 | 10.0 | 0.00 | 0.00 | 0.00 | 71 | 1010.7 |
| 20260504233039 | 80 | 160 | 4.0 | 10.0 | 0.00 | 0.00 | 0.00 | 70 | 1010.7 |
| 20260504231543 | 80 | 120 | 3.0 | 9.0 | 0.00 | 0.00 | 0.00 | 69 | 1010.8 |
| 20260504230042 | 81 | 178 | 3.0 | 14.0 | 0.00 | 0.00 | 0.00 | 69 | 1010.9 |
| 20260504224536 | 80 | 173 | 5.0 | 9.0 | 0.00 | 0.00 | 0.00 | 68 | 1010.9 |
| 20260504223035 | 81 | 144 | 4.0 | 9.0 | 0.00 | 0.00 | 0.00 | 68 | 1011.0 |
| 20260504221548 | 81 | 155 | 4.0 | 9.0 | 0.00 | 0.00 | 0.00 | 67 | 1011.2 |
| 20260504220035 | 82 | 204 | 3.0 | 9.0 | 0.00 | 0.00 | 0.00 | 67 | 1011.3 |
| 20260504214534 | 81 | 184 | 1.0 | 8.0 | 0.00 | 0.00 | 0.00 | 67 | 1011.5 |
| 20260504213046 | 81 | 144 | 2.0 | 10.0 | 0.00 | 0.00 | 0.00 | 68 | 1011.7 |
| 20260504211536 | 81 | 163 | 2.0 | 11.0 | 0.00 | 0.00 | 0.00 | 67 | 1011.9 |
| 20260504210032 | 82 | 132 | 5.0 | 11.0 | 0.00 | 0.00 | 0.00 | 66 | 1012.2 |
| 20260504204531 | 81 | 125 | 5.0 | 11.0 | 0.00 | 0.00 | 0.00 | 66 | 1012.6 |
| 20260504203043 | 82 | 146 | 3.0 | 13.0 | 0.00 | 0.00 | 0.00 | 67 | 1012.6 |
| 20260504201530 | 81 | 168 | 6.0 | 13.0 | 0.00 | 0.00 | 0.00 | 68 | 1012.8 |
| 20260504200029 | 81 | 128 | 5.0 | 11.0 | 0.00 | 0.00 | 0.00 | 68 | 1012.8 |
| 20260504194538 | 81 | 134 | 5.0 | 14.0 | 0.00 | 0.00 | 0.00 | 68 | 1012.8 |
| 20260504193028 | 81 | 173 | 4.0 | 15.0 | 0.00 | 0.00 | 0.00 | 68 | 1012.8 |
| 20260504191536 | 82 | 108 | 5.0 | 11.0 | 0.00 | 0.00 | 0.00 | 66 | 1012.8 |
| 20260504190027 | 82 | 120 | 4.0 | 11.0 | 0.00 | 0.00 | 0.00 | 66 | 1012.9 |
| 20260504184527 | 82 | 183 | 5.0 | 10.0 | 0.00 | 0.00 | 0.00 | 64 | 1012.8 |
| 20260504183025 | 82 | 148 | 3.0 | 10.0 | 0.00 | 0.00 | 0.00 | 65 | 1012.9 |
| 20260504181525 | 82 | 100 | 5.0 | 11.0 | 0.00 | 0.00 | 0.00 | 64 | 1013.2 |
| 20260504180024 | 82 | 165 | 3.0 | 10.0 | 0.00 | 0.00 | 0.00 | 67 | 1013.1 |
| 20260504174523 | 81 | 165 | 3.0 | 9.0 | 0.00 | 0.00 | 0.00 | 69 | 1013.2 |
| 20260504173022 | 81 | 164 | 3.0 | 10.0 | 0.00 | 0.00 | 0.00 | 70 | 1013.3 |
| 20260504171529 | 81 | 113 | 4.0 | 10.0 | 0.00 | 0.00 | 0.00 | 68 | 1013.5 |
| 20260504150110 | 74 | 329 | 0.0 | 2.0 | 0.00 | 0.00 | 0.00 | 66 | 1013.1 |
| 20260504081557 | 68 | 22 | 1.0 | 6.0 | 0.00 | 0.00 | 0.00 | 50 | 1011.8 |
| 20260504080114 | 68 | 312 | 0.0 | 5.0 | 0.00 | 0.00 | 0.00 | 49 | 1011.7 |
| 20260504044544 | 71 | 335 | 0.0 | 1.0 | 0.00 | 0.00 | 0.00 | 53 | 1012.5 |
| 20260504043043 | 71 | 335 | 0.0 | 3.0 | 0.00 | 0.00 | 0.00 | 52 | 1012.3 |
| 20260504041543 | 71 | 42 | 0.0 | 2.0 | 0.00 | 0.00 | 0.00 | 54 | 1012.1 |
| 20260504040100 | 71 | 51 | 0.0 | 1.0 | 0.00 | 0.00 | 0.00 | 54 | 1012.0 |
| 20260504034543 | 72 | 140 | 0.0 | 1.0 | 0.00 | 0.00 | 0.00 | 58 | 1011.9 |
| 20260504033041 | 74 | 140 | 0.0 | 0.0 | 0.00 | 0.00 | 0.00 | 58 | 1011.8 |
| 20260504031541 | 74 | 140 | 0.0 | 0.0 | 0.00 | 0.00 | 0.00 | 57 | 1011.7 |
| 20260504030041 | 75 | 140 | 0.0 | 1.0 | 0.00 | 0.00 | 0.00 | 56 | 1011.6 |
| 20260504024541 | 75 | 148 | 0.0 | 2.0 | 0.00 | 0.00 | 0.00 | 57 | 1011.4 |
| 20260504023040 | 76 | 132 | 0.0 | 2.0 | 0.00 | 0.00 | 0.00 | 57 | 1011.4 |
| 20260504021540 | 77 | 122 | 0.0 | 2.0 | 0.00 | 0.00 | 0.00 | 57 | 1011.4 |
| 20260504020040 | 78 | 138 | 1.0 | 2.0 | 0.00 | 0.00 | 0.00 | 55 | 1011.2 |
| 20260504014550 | 79 | 126 | 0.0 | 3.0 | 0.00 | 0.00 | 0.00 | 50 | 1011.0 |
| 20260504013116 | 80 | 126 | 0.0 | 3.0 | 0.00 | 0.00 | 0.00 | 42 | 1011.1 |
| 20260504011540 | 80 | 145 | 1.0 | 5.0 | 0.00 | 0.00 | 0.00 | 40 | 1011.0 |